CW7693 Weather Reports


time (UTC)temp
F
wind
direction
speed
knots
gust
knots
rain 1hr
in
rain 24hr
in
rain mn
in
humidity
%
barometer
mb
20260903200804 67 0 0.0 1.7 0.00 0.00 0.00 66 1023.5
20260903200304 67 0 0.0 2.6 0.00 0.00 0.00 65 1023.5
20260903195804 67 0 0.0 2.6 0.00 0.00 0.00 65 1023.5
20260903194804 67 0 0.9 1.7 0.00 0.00 0.00 64 1023.4
20260903193304 68 0 1.7 2.6 0.00 0.00 0.00 63 1023.2
20260903192803 68 0 1.7 4.3 0.00 0.00 0.00 62 1023.2
20260903192306 68 0 2.6 4.3 0.00 0.00 0.00 61 1023.4
20260903191804 69 0 0.9 2.6 0.00 0.00 0.00 60 1023.4
20260903190303 69 0 0.0 2.6 0.00 0.00 0.00 57 1023.2
20260903185803 70 0 0.9 2.6 0.00 0.00 0.00 57 1023.1
20260903184803 70 0 0.9 2.6 0.00 0.00 0.00 56 1023.2
20260903184303 70 0 1.7 2.6 0.00 0.00 0.00 56 1023.1
20260903183803 70 0 0.0 2.6 0.00 0.00 0.00 55 1023.1
20260903183303 70 0 2.6 2.6 0.00 0.00 0.00 54 1023.0
20260903182803 70 0 0.9 2.6 0.00 0.00 0.00 54 1022.9
20260903182306 71 0 1.7 2.6 0.00 0.00 0.00 55 1022.9
20260903180804 72 0 0.0 1.7 0.00 0.00 0.00 50 1022.7
20260903180304 72 0 0.9 1.7 0.00 0.00 0.00 49 1022.7
20260903175306 73 0 0.9 7.0 0.00 0.00 0.00 47 1022.6
20260903174804 73 3 4.3 7.0 0.00 0.00 0.00 48 1022.7
20260903174304 73 0 0.0 0.0 0.00 0.00 0.00 47 1022.7
20260903173804 73 0 0.0 0.9 0.00 0.00 0.00 47 1022.7
20260903173304 73 0 0.0 1.7 0.00 0.00 0.00 46 1022.6
20260903172306 74 0 1.7 2.6 0.00 0.00 0.00 46 1022.7
20260903170304 74 355 1.7 6.1 0.00 0.00 0.00 44 1022.8
20260903165306 74 269 1.7 7.0 0.00 0.00 0.00 43 1022.8
20260903164304 75 228 1.7 5.2 0.00 0.00 0.00 44 1022.7
20260903163804 75 297 0.9 6.1 0.00 0.00 0.00 42 1022.6
20260903163304 75 0 2.6 6.1 0.00 0.00 0.00 43 1022.7
20260903162804 75 352 1.7 6.1 0.00 0.00 0.00 43 1022.6
20260903162306 75 353 3.5 8.7 0.00 0.00 0.00 42 1022.7
20260903161804 75 223 3.5 8.7 0.00 0.00 0.00 41 1022.7
20260903161303 75 234 5.2 7.8 0.00 0.00 0.00 40 1022.7
20260903160803 75 209 4.3 10.4 0.00 0.00 0.00 39 1022.7
20260903160303 75 241 2.6 12.2 0.00 0.00 0.00 38 1022.6
20260903155306 76 211 2.6 8.7 0.00 0.00 0.00 37 1022.5
20260903152804 77 225 3.5 7.0 0.00 0.00 0.00 35 1022.5
20260903150304 78 234 1.7 7.8 0.00 0.00 0.00 34 1022.4
20260903145306 78 211 1.7 10.4 0.00 0.00 0.00 33 1022.5
20260903143803 78 230 4.3 12.2 0.00 0.00 0.00 33 1022.5
20260903143303 78 276 6.1 12.2 0.00 0.00 0.00 34 1022.5
20260903142803 78 254 6.1 14.8 0.00 0.00 0.00 33 1022.6
20260903141804 78 242 5.2 12.2 0.00 0.00 0.00 33 1022.5
20260903141304 78 231 4.3 13.9 0.00 0.00 0.00 35 1022.5
20260903140804 79 254 5.2 13.9 0.00 0.00 0.00 34 1022.5
20260903135306 79 0 4.3 8.7 0.00 0.00 0.00 38 1022.3
20260903134303 78 18 0.9 7.8 0.00 0.00 0.00 41 1022.4
20260903133803 78 274 2.6 7.0 0.00 0.00 0.00 43 1022.4
20260903133304 77 258 2.6 6.1 0.00 0.00 0.00 43 1022.4
20260903132804 77 279 4.3 6.1 0.00 0.00 0.00 43 1022.4
20260903132306 77 293 2.6 10.4 0.00 0.00 0.00 44 1022.5
20260903131804 77 250 4.3 10.4 0.00 0.00 0.00 43 1022.4
20260903131304 76 203 5.2 10.4 0.00 0.00 0.00 43 1022.4
20260903125803 76 267 4.3 8.7 0.00 0.00 0.00 44 1022.5
20260903124303 77 246 2.6 11.3 0.00 0.00 0.00 42 1022.7
20260903123804 77 224 3.5 13.0 0.00 0.00 0.00 42 1022.8
20260903123303 78 276 6.1 13.0 0.00 0.00 0.00 40 1022.9
20260903121803 78 265 2.6 8.7 0.00 0.00 0.00 39 1022.9
20260903120804 79 279 5.2 11.3 0.00 0.00 0.00 38 1022.8
20260903120303 78 254 4.3 13.0 0.00 0.00 0.00 39 1022.7
20260903115803 78 271 5.2 17.4 0.00 0.00 0.00 39 1022.9
20260903114304 77 289 5.2 13.0 0.00 0.00 0.00 36 1022.9
20260903113804 77 257 6.1 13.0 0.00 0.00 0.00 34 1023.1
20260903113304 78 266 4.3 11.3 0.00 0.00 0.00 40 1023.1
20260903112305 77 266 6.1 15.6 0.00 0.00 0.00 38 1023.0
20260903110804 76 284 7.8 20.0 0.00 0.00 0.00 36 1023.0
20260903105306 77 272 4.3 14.8 0.00 0.00 0.00 41 1022.9
20260903104304 77 279 5.2 13.0 0.00 0.00 0.00 43 1023.0
20260903103303 76 259 3.5 6.1 0.00 0.00 0.00 45 1023.0
20260903102305 76 265 4.3 11.3 0.00 0.00 0.00 45 1023.0
20260903101803 76 258 5.2 11.3 0.00 0.00 0.00 46 1023.1
20260903101304 75 273 2.6 7.8 0.00 0.00 0.00 50 1023.2
20260903100309 75 352 4.3 6.1 0.00 0.00 0.00 52 1023.0
20260903095803 75 24 2.6 7.8 0.00 0.00 0.00 52 1023.1
20260903094804 74 350 2.6 7.8 0.00 0.00 0.00 54 1023.3
20260903094303 74 2 3.5 7.0 0.00 0.00 0.00 54 1023.3
20260903093803 73 8 2.6 7.8 0.00 0.00 0.00 55 1023.2
20260903093304 73 353 2.6 7.8 0.00 0.00 0.00 57 1023.2
20260903092803 73 346 5.2 10.4 0.00 0.00 0.00 55 1023.4
20260903092306 72 14 4.3 10.4 0.00 0.00 0.00 57 1023.4
20260903091803 72 344 3.5 7.8 0.00 0.00 0.00 58 1023.6
20260903090804 71 342 2.6 6.1 0.00 0.00 0.00 59 1023.7
20260903085803 71 308 2.6 5.2 0.00 0.00 0.00 60 1023.5
20260903085306 72 356 2.6 5.2 0.00 0.00 0.00 59 1023.4
20260903084804 71 321 0.0 2.6 0.00 0.00 0.00 60 1023.3
20260903084304 71 339 1.7 2.6 0.00 0.00 0.00 61 1023.4
20260903082804 70 145 0.0 2.6 0.00 0.00 0.00 63 1023.4
20260903082306 69 145 0.0 2.6 0.00 0.00 0.00 65 1023.5
20260903081804 68 150 0.0 2.6 0.00 0.00 0.00 66 1023.4
20260903075803 65 359 0.0 0.0 0.00 0.00 0.00 73 1023.7
20260903075306 64 355 0.0 0.0 0.00 0.00 0.00 74 1023.7
20260903074304 63 0 0.0 0.0 0.00 0.00 0.00 76 1023.8
20260903073804 62 0 0.0 0.0 0.00 0.00 0.00 76 1023.8
20260903073304 62 0 0.0 0.0 0.00 0.00 0.00 76 1024.0
20260903072306 62 0 0.0 0.0 0.00 0.00 0.00 75 1024.0
20260903071804 63 0 0.0 0.0 0.00 0.00 0.00 75 1024.2
20260903071304 63 0 0.0 0.0 0.00 0.00 0.00 75 1024.2
20260903070804 63 0 0.0 0.0 0.00 0.00 0.00 75 1024.2
20260903070304 63 0 0.0 0.0 0.00 0.00 0.00 74 1024.1
20260903064804 62 0 0.0 0.0 0.00 0.00 0.00 77 1024.0
20260903063804 61 0 0.0 0.0 0.00 0.00 0.00 78 1023.8
20260903062306 60 0 1.7 4.3 0.00 0.00 0.00 79 1023.9
20260903061803 60 0 1.7 4.3 0.00 0.00 0.00 80 1023.8
20260903060803 59 0 1.7 2.6 0.00 0.00 0.00 82 1023.7
20260903055804 58 0 0.9 2.6 0.00 0.00 0.00 82 1023.6
20260903055306 58 0 1.7 4.3 0.00 0.00 0.00 82 1023.5
20260903054304 58 0 0.0 0.0 0.00 0.00 0.00 83 1023.6
20260903053304 58 0 0.0 0.0 0.00 0.00 0.00 83 1023.7
20260903052307 57 0 0.0 0.0 0.00 0.00 0.00 84 1023.6
20260903050804 57 0 0.0 2.6 0.00 0.00 0.00 83 1023.5
20260903050304 57 0 0.0 2.6 0.00 0.00 0.00 83 1023.5
20260903045803 57 0 0.0 2.6 0.00 0.00 0.00 83 1023.4
20260903044803 58 0 0.0 2.6 0.00 0.00 0.00 83 1023.3
20260903044303 58 0 1.7 2.6 0.00 0.00 0.00 82 1023.3
20260903043303 58 0 0.0 0.0 0.00 0.00 0.00 82 1023.2
20260903042803 58 0 0.0 0.0 0.00 0.00 0.00 82 1023.2
20260903042306 58 0 0.0 0.0 0.00 0.00 0.00 82 1023.2
20260903041804 58 1 0.0 0.0 0.00 0.00 0.00 81 1023.2
20260903041303 58 0 0.0 0.0 0.00 0.00 0.00 81 1023.2
20260903040804 58 0 0.0 0.0 0.00 0.00 0.00 80 1023.1
20260903040303 58 0 0.0 0.0 0.00 0.00 0.00 80 1023.3
20260903035803 58 0 0.0 0.0 0.00 0.00 0.00 80 1023.1
20260903035306 58 0 0.0 0.0 0.00 0.00 0.00 81 1023.2
20260903034303 58 0 0.0 0.0 0.00 0.00 0.00 80 1023.1
20260903033803 59 0 0.0 0.9 0.00 0.00 0.00 80 1023.1
20260903033303 59 0 0.0 2.6 0.00 0.00 0.00 80 1023.1
20260903032306 59 0 1.7 2.6 0.00 0.00 0.00 79 1023.2
20260903031804 59 0 0.9 2.6 0.00 0.00 0.00 78 1023.1
20260903031303 59 0 0.0 0.0 0.00 0.00 0.00 78 1023.2
20260903030804 59 0 0.0 0.9 0.00 0.00 0.00 78 1023.1
20260903030304 59 0 0.0 0.9 0.00 0.00 0.00 79 1023.2
20260903025306 59 0 0.0 0.0 0.00 0.00 0.00 78 1023.2
20260903024303 59 0 0.0 2.6 0.00 0.00 0.00 78 1023.2
20260903023303 59 0 0.0 2.6 0.00 0.00 0.00 79 1023.3
20260903022306 59 0 0.9 1.7 0.00 0.00 0.00 80 1023.4
20260903021803 58 12 0.9 2.6 0.00 0.00 0.00 79 1023.4
20260903021303 58 0 1.7 2.6 0.00 0.00 0.00 79 1023.4
20260903020303 59 137 0.0 0.0 0.00 0.00 0.00 78 1023.3
20260903015803 59 157 0.0 0.9 0.00 0.00 0.00 78 1023.3
20260903014803 59 157 0.9 1.7 0.00 0.00 0.00 77 1023.4
20260903014303 59 157 0.0 2.6 0.00 0.00 0.00 77 1023.3
20260903013803 59 157 1.7 2.6 0.00 0.00 0.00 77 1023.4
20260903013303 59 157 0.0 0.9 0.00 0.00 0.00 78 1023.3
20260903012803 59 157 0.0 2.6 0.00 0.00 0.00 78 1023.4
20260903012306 59 157 0.0 2.6 0.00 0.00 0.00 78 1023.4
20260903011804 59 156 1.7 2.6 0.00 0.00 0.00 78 1023.3
20260903010804 59 140 1.7 2.6 0.00 0.00 0.00 78 1023.2
20260903010303 59 224 1.7 2.6 0.00 0.00 0.00 77 1023.2
20260903005803 59 123 0.0 0.0 0.00 0.00 0.00 77 1023.2
20260903004803 59 145 0.0 0.0 0.00 0.00 0.00 77 1023.2
20260903003803 59 144 0.0 0.0 0.00 0.00 0.00 77 1023.2
20260903003303 59 156 0.0 0.0 0.00 0.00 0.00 77 1023.2
20260903002803 59 157 0.0 0.0 0.00 0.00 0.00 76 1023.1
20260903001303 60 157 0.0 0.0 0.00 0.00 0.00 76 1023.0
20260903000803 60 153 0.0 1.7 0.00 0.00 0.00 76 1023.0
20260903000304 60 146 0.0 2.6 0.00 0.00 0.00 76 1023.0
20260902235804 60 45 0.9 2.6 0.00 0.00 0.00 76 1023.1
20260902235305 60 0 0.9 2.6 0.00 0.00 0.00 76 1023.0
20260902234803 60 0 1.7 2.6 0.00 0.00 0.00 76 1023.1
20260902234303 60 0 1.7 2.6 0.00 0.00 0.00 76 1023.2
20260902233303 60 0 1.7 2.6 0.00 0.00 0.00 75 1023.2
20260902232803 60 0 0.0 2.6 0.00 0.00 0.00 75 1023.2
20260902232306 60 0 1.7 6.1 0.00 0.00 0.00 75 1023.1
20260902231803 60 0 1.7 6.1 0.00 0.00 0.00 74 1023.2
20260902231303 61 0 4.3 6.1 0.00 0.00 0.00 74 1023.4
20260902230803 61 0 1.7 2.6 0.00 0.00 0.00 74 1023.3
20260902230304 61 0 0.9 2.6 0.00 0.00 0.00 73 1023.3
20260902225306 61 0 1.7 2.6 0.00 0.00 0.00 73 1023.2
20260902224803 61 0 1.7 2.6 0.00 0.00 0.00 74 1023.3
20260902224303 61 0 1.7 2.6 0.00 0.00 0.00 74 1023.3
20260902223803 61 0 0.9 2.6 0.00 0.00 0.00 74 1023.3
20260902222306 62 0 0.9 1.7 0.00 0.00 0.00 74 1023.5
20260902221303 62 0 1.7 2.6 0.00 0.00 0.00 74 1023.4
20260902220309 62 0 0.0 2.6 0.00 0.00 0.00 73 1023.3
20260902215803 62 0 1.7 2.6 0.00 0.00 0.00 73 1023.1
20260902215306 62 0 1.7 2.6 0.00 0.00 0.00 73 1023.0
20260902214303 63 0 0.9 2.6 0.00 0.00 0.00 72 1023.0
20260902212305 63 0 0.9 4.3 0.00 0.00 0.00 70 1022.8
20260902211803 63 0 1.7 4.3 0.00 0.00 0.00 70 1022.8
20260902211304 64 0 0.9 2.6 0.00 0.00 0.00 69 1022.8
20260902210804 64 0 1.7 4.3 0.00 0.00 0.00 69 1022.8
20260902205804 64 0 3.5 6.1 0.00 0.00 0.00 68 1022.8
20260902202804 65 0 1.7 2.6 0.00 0.00 0.00 65 1022.6
20260902202306 65 0 0.9 2.6 0.00 0.00 0.00 65 1022.6
20260902201803 66 0 1.7 2.6 0.00 0.00 0.00 64 1022.6
20260902201303 66 0 1.7 4.3 0.00 0.00 0.00 63 1022.6